GW2160 Weather Reports


time (UTC)temp
F
wind
direction
speed
knots
gust
knots
rain 1hr
in
rain 24hr
in
rain mn
in
humidity
%
barometer
mb
20260507052526 54 199 2.6 7.0 0.00 0.00 0.00 83 1020.5
20260507052027 54 229 2.6 5.2 0.00 0.00 0.00 84 1020.4
20260507051540 54 212 2.6 5.2 0.00 0.00 0.00 84 1020.5
20260507051024 54 143 2.6 5.2 0.00 0.00 0.00 84 1020.6
20260507050525 54 207 2.6 5.2 0.00 0.00 0.00 84 1020.6
20260507050039 54 193 2.6 5.2 0.00 0.00 0.00 83 1020.5
20260507045526 55 142 2.6 5.2 0.00 0.00 0.00 83 1020.6
20260507045024 55 222 1.7 4.3 0.00 0.00 0.00 83 1020.6
20260507044548 55 144 1.7 4.3 0.00 0.00 0.00 83 1020.5
20260507044027 55 184 0.9 4.3 0.00 0.00 0.00 83 1020.5
20260507043524 55 212 1.7 6.1 0.00 0.00 0.00 83 1020.5
20260507043042 55 173 1.7 6.1 0.00 0.00 0.00 83 1020.5
20260507042526 55 168 1.7 5.2 0.00 0.00 0.00 83 1020.5
20260507042028 55 226 2.6 6.1 0.00 0.00 0.00 83 1020.4
20260507041545 55 175 0.9 6.1 0.00 0.00 0.00 83 1020.4
20260507041027 55 146 1.7 6.1 0.00 0.00 0.00 83 1020.4
20260507040527 55 144 2.6 6.1 0.00 0.00 0.00 83 1020.3
20260507040044 55 195 1.7 4.3 0.00 0.00 0.00 83 1020.3
20260507035529 55 178 1.7 4.3 0.00 0.00 0.00 83 1020.3
20260507035026 55 145 0.9 4.3 0.00 0.00 0.00 83 1020.3
20260507034543 55 148 1.7 4.3 0.00 0.00 0.00 83 1020.3
20260507034027 55 217 0.9 3.5 0.00 0.00 0.00 83 1020.2
20260507033524 55 160 0.0 5.2 0.00 0.00 0.00 83 1020.2
20260507033058 55 160 0.9 5.2 0.00 0.00 0.00 83 1020.3
20260507032527 55 201 0.9 3.5 0.00 0.00 0.00 83 1020.2
20260507032033 55 153 1.7 3.5 0.00 0.00 0.00 82 1020.1
20260507031553 55 165 0.9 2.6 0.00 0.00 0.00 83 1020.1
20260507031024 56 212 0.9 2.6 0.00 0.00 0.00 83 1020.1
20260507030527 56 211 0.0 2.6 0.00 0.00 0.00 82 1020.1
20260507030101 56 144 0.9 3.5 0.00 0.00 0.00 82 1020.0
20260507025526 56 143 0.0 3.5 0.00 0.00 0.00 81 1020.0
20260507025028 56 143 1.7 4.3 0.00 0.00 0.00 81 1020.0
20260507024555 56 134 0.9 7.0 0.00 0.00 0.00 81 1020.0
20260507024025 56 202 1.7 7.0 0.00 0.00 0.00 81 1019.9
20260507023524 56 203 2.6 6.1 0.00 0.00 0.00 81 1019.8
20260507023036 56 139 2.6 6.1 0.00 0.00 0.00 80 1019.9
20260507022524 56 214 2.6 6.1 0.00 0.00 0.00 80 1019.8
20260507022024 56 214 2.6 7.8 0.00 0.00 0.00 81 1019.8
20260507021550 56 139 3.5 7.8 0.00 0.00 0.00 80 1019.8
20260507021026 56 163 3.5 8.7 0.00 0.00 0.00 80 1019.8
20260507020524 56 134 3.5 10.4 0.00 0.00 0.00 80 1019.9
20260507020053 56 212 4.3 10.4 0.00 0.00 0.00 80 1019.8
20260507015526 57 201 3.5 7.8 0.00 0.00 0.00 80 1019.9
20260507015026 57 159 3.5 12.2 0.00 0.00 0.00 80 1019.9
20260507014549 57 107 4.3 12.2 0.00 0.00 0.00 81 1019.9
20260507014024 57 169 5.2 12.2 0.00 0.00 0.00 79 1019.9
20260507013524 57 174 4.3 8.7 0.00 0.00 0.00 79 1019.8
20260507013040 57 183 5.2 8.7 0.00 0.00 0.00 79 1019.9
20260507012527 57 174 3.5 7.8 0.00 0.00 0.00 80 1019.8
20260507012026 57 190 2.6 7.8 0.00 0.00 0.00 80 1019.9
20260507011542 57 205 2.6 7.8 0.00 0.00 0.00 80 1019.9
20260507011028 57 150 4.3 7.8 0.00 0.00 0.00 80 1019.9
20260507010526 57 165 4.3 7.8 0.00 0.00 0.00 80 1019.9
20260507010045 57 212 3.5 7.8 0.00 0.00 0.00 79 1019.9
20260507005528 58 184 2.6 7.8 0.00 0.00 0.00 79 1019.9
20260507005030 58 134 1.7 7.8 0.00 0.00 0.00 79 1019.8
20260507004539 58 214 3.5 7.8 0.00 0.00 0.00 78 1019.9
20260507004025 58 165 4.3 7.8 0.00 0.00 0.00 77 1019.9
20260507003525 58 198 2.6 7.8 0.00 0.00 0.00 78 1019.8
20260507003039 58 170 3.5 8.7 0.00 0.00 0.00 79 1019.9
20260507002526 58 229 4.3 8.7 0.00 0.00 0.00 78 1019.8
20260507002025 58 193 4.3 8.7 0.00 0.00 0.00 77 1019.8
20260507001537 58 134 4.3 8.7 0.00 0.00 0.00 78 1019.7
20260507001024 58 134 3.5 8.7 0.00 0.00 0.00 78 1019.7
20260507000525 58 198 4.3 8.7 0.00 0.00 0.00 79 1019.8
20260507000044 58 214 4.3 8.7 0.00 0.00 0.00 78 1019.8
20260506235526 58 200 3.5 8.7 0.00 0.00 0.00 78 1019.8
20260506235024 58 172 5.2 10.4 0.00 0.00 0.00 80 1019.9
20260506234552 58 203 4.3 10.4 0.00 0.00 0.00 79 1019.8
20260506234025 58 150 5.2 10.4 0.00 0.00 0.00 79 1019.9
20260506233524 59 217 6.1 9.6 0.00 0.00 0.00 76 1019.9
20260506233048 59 157 5.2 9.6 0.00 0.00 0.00 76 1019.9
20260506232524 59 155 5.2 9.6 0.00 0.00 0.00 75 1020.0
20260506232024 59 178 6.1 13.0 0.00 0.00 0.00 75 1019.9
20260506231537 59 146 6.1 13.0 0.00 0.00 0.00 77 1019.9
20260506231026 59 201 6.1 13.0 0.00 0.00 0.00 75 1020.0
20260506230526 59 141 7.8 13.0 0.00 0.00 0.00 77 1020.1
20260506230038 59 131 5.2 12.2 0.00 0.00 0.00 76 1020.0
20260506225525 58 172 4.3 12.2 0.00 0.00 0.00 76 1020.0
20260506225027 58 191 5.2 10.4 0.00 0.00 0.00 76 1020.1
20260506224543 58 214 5.2 11.3 0.00 0.00 0.00 76 1020.0
20260506224025 58 167 6.1 11.3 0.00 0.00 0.00 76 1020.1
20260506223524 58 178 5.2 10.4 0.00 0.00 0.00 77 1020.1
20260506223042 58 123 5.2 11.3 0.00 0.00 0.00 77 1020.0
20260506222524 58 162 5.2 11.3 0.00 0.00 0.00 78 1020.1
20260506222025 58 205 6.1 10.4 0.00 0.00 0.00 79 1020.2
20260506221539 58 193 4.3 11.3 0.00 0.00 0.00 77 1020.2
20260506221024 58 148 7.0 11.3 0.00 0.00 0.00 78 1020.2
20260506220524 58 198 4.3 10.4 0.00 0.00 0.00 78 1020.3
20260506220039 58 207 4.3 10.4 0.00 0.00 0.00 79 1020.2
20260506215524 58 152 4.3 11.3 0.00 0.00 0.00 77 1020.2
20260506215024 57 211 5.2 11.3 0.00 0.00 0.00 78 1020.2
20260506214538 57 193 5.2 11.3 0.00 0.00 0.00 78 1020.2
20260506214027 58 212 5.2 11.3 0.00 0.00 0.00 78 1020.2
20260506213526 58 205 5.2 11.3 0.00 0.00 0.00 78 1020.3
20260506213038 58 154 5.2 10.4 0.00 0.00 0.00 78 1020.3
20260506212524 58 198 6.1 13.0 0.00 0.00 0.00 77 1020.3
20260506212028 57 171 5.2 13.0 0.00 0.00 0.00 78 1020.2
20260506211541 57 233 7.0 13.0 0.00 0.00 0.00 80 1020.3
20260506211025 57 229 6.1 13.0 0.00 0.00 0.00 79 1020.2
20260506210525 57 123 4.3 11.3 0.00 0.00 0.00 79 1020.2
20260506210040 57 153 5.2 11.3 0.00 0.00 0.00 78 1020.3
20260506205528 57 205 6.1 11.3 0.00 0.00 0.00 78 1020.3
20260506205024 57 200 5.2 9.6 0.00 0.00 0.00 78 1020.4
20260506204541 57 208 4.3 10.4 0.00 0.00 0.00 78 1020.3
20260506204024 57 212 6.1 10.4 0.00 0.00 0.00 79 1020.3
20260506203527 57 136 6.1 10.4 0.00 0.00 0.00 78 1020.3
20260506203040 57 184 6.1 10.4 0.00 0.00 0.00 79 1020.2
20260506202525 56 186 5.2 10.4 0.00 0.00 0.00 78 1020.3
20260506202024 56 172 3.5 9.6 0.00 0.00 0.00 78 1020.2
20260506201542 56 172 3.5 7.8 0.00 0.00 0.00 78 1020.3
20260506201023 56 165 3.5 10.4 0.00 0.00 0.00 78 1020.3
20260506200524 56 114 4.3 11.3 0.00 0.00 0.00 79 1020.3
20260506200042 56 214 5.2 11.3 0.00 0.00 0.00 78 1020.3
20260506195529 56 201 6.1 11.3 0.00 0.00 0.00 78 1020.3
20260506195025 56 205 4.3 10.4 0.00 0.00 0.00 78 1020.2
20260506194539 56 143 5.2 10.4 0.00 0.00 0.00 78 1020.2
20260506194025 56 187 3.5 13.0 0.00 0.00 0.00 79 1020.1
20260506193526 56 192 4.3 13.0 0.00 0.00 0.00 79 1020.2
20260506193037 55 109 4.3 10.4 0.00 0.00 0.00 80 1020.2
20260506192527 55 198 4.3 11.3 0.00 0.00 0.00 79 1020.2
20260506192029 55 191 6.1 11.3 0.00 0.00 0.00 80 1020.2
20260506191545 55 186 7.0 11.3 0.00 0.00 0.00 80 1020.1
20260506191023 55 186 4.3 12.2 0.00 0.00 0.00 80 1020.1
20260506190522 55 165 5.2 12.2 0.00 0.00 0.00 79 1020.2
20260506190043 55 238 5.2 12.2 0.00 0.00 0.00 80 1020.1
20260506185525 55 204 6.1 12.2 0.00 0.00 0.00 80 1020.1
20260506185025 55 155 5.2 12.2 0.00 0.00 0.00 79 1020.1
20260506184546 55 153 5.2 11.3 0.00 0.00 0.00 80 1020.1
20260506184026 55 213 4.3 13.9 0.00 0.00 0.00 80 1020.1
20260506183526 55 172 5.2 13.9 0.00 0.00 0.00 80 1020.0
20260506183039 55 158 5.2 9.6 0.00 0.00 0.00 81 1020.0
20260506182525 55 204 4.3 12.2 0.00 0.00 0.00 80 1020.1
20260506182024 55 176 6.1 12.2 0.00 0.00 0.00 80 1020.1
20260506181539 55 150 3.5 12.2 0.00 0.00 0.00 81 1020.1
20260506181027 55 212 6.1 12.2 0.00 0.00 0.00 80 1020.0
20260506180523 55 150 5.2 11.3 0.00 0.00 0.00 81 1020.0
20260506180047 55 191 6.1 12.2 0.00 0.00 0.00 81 1019.9
20260506175525 54 209 6.1 12.2 0.00 0.00 0.00 81 1019.9
20260506175025 54 152 6.1 12.2 0.00 0.00 0.00 81 1019.9
20260506174541 54 139 6.1 11.3 0.00 0.00 0.00 83 1019.9
20260506174030 54 171 5.2 11.3 0.00 0.00 0.00 81 1019.8
20260506173526 54 195 5.2 9.6 0.00 0.00 0.00 81 1019.8
20260506173117 54 250 2.6 8.7 0.00 0.00 0.00 82 1019.7
20260506172525 54 140 3.5 10.4 0.00 0.00 0.00 81 1019.9
20260506172026 54 192 5.2 10.4 0.00 0.00 0.00 82 1019.8
20260506171539 54 168 4.3 10.4 0.00 0.00 0.00 81 1019.8
20260506171026 54 225 4.3 10.4 0.00 0.00 0.00 82 1019.8
20260506170526 54 210 5.2 10.4 0.00 0.00 0.00 82 1019.8
20260506170041 54 246 4.3 9.6 0.00 0.00 0.00 83 1019.8
20260506165525 53 197 3.5 9.6 0.00 0.00 0.00 84 1019.8
20260506165023 53 224 3.5 9.6 0.00 0.00 0.00 84 1019.9
20260506164541 53 179 3.5 7.8 0.00 0.00 0.00 85 1019.8
20260506164027 53 223 2.6 7.8 0.00 0.00 0.00 85 1019.7
20260506163532 53 176 2.6 7.8 0.00 0.00 0.00 86 1019.9
20260506163042 53 212 2.6 6.1 0.00 0.00 0.00 86 1019.7
20260506162524 53 155 3.5 7.8 0.00 0.00 0.00 87 1019.8
20260506162028 53 140 2.6 7.8 0.00 0.00 0.00 88 1019.7
20260506161540 53 160 2.6 8.7 0.00 0.00 0.00 87 1019.7
20260506161024 53 199 3.5 8.7 0.00 0.00 0.00 87 1019.7
20260506160524 53 202 3.5 7.8 0.00 0.00 0.00 89 1019.7
20260506160040 53 150 3.5 7.8 0.00 0.00 0.00 89 1019.6
20260506155524 53 136 3.5 7.8 0.00 0.00 0.00 89 1019.5
20260506155025 53 211 3.5 7.8 0.00 0.00 0.00 90 1019.5
20260506154545 53 160 3.5 7.0 0.00 0.00 0.00 89 1019.5
20260506154024 53 142 2.6 7.8 0.00 0.00 0.00 89 1019.4
20260506153526 53 136 4.3 7.8 0.00 0.00 0.00 88 1019.5
20260506153035 53 141 1.7 7.8 0.00 0.00 0.00 89 1019.5
20260506152524 53 242 4.3 8.7 0.00 0.00 0.00 88 1019.5
20260506152024 53 139 4.3 8.7 0.00 0.00 0.00 88 1019.6
20260506151542 53 201 4.3 7.8 0.00 0.00 0.00 88 1019.5
20260506151027 53 190 3.5 7.8 0.00 0.00 0.00 88 1019.5
20260506150526 53 174 5.2 7.8 0.00 0.00 0.00 88 1019.5
20260506150043 53 184 2.6 7.8 0.00 0.00 0.00 88 1019.5
20260506145525 53 146 3.5 7.0 0.00 0.00 0.00 89 1019.6
20260506145025 53 213 2.6 6.1 0.00 0.00 0.00 88 1019.4
20260506144542 53 240 2.6 7.0 0.00 0.00 0.00 89 1019.3
20260506144024 53 200 3.5 9.6 0.00 0.00 0.00 89 1019.2
20260506143545 53 192 4.3 9.6 0.00 0.00 0.00 90 1019.2
20260506143040 53 164 3.5 8.7 0.00 0.00 0.00 90 1019.3
20260506142523 52 165 3.5 8.7 0.00 0.00 0.00 89 1019.4
20260506142023 52 193 4.3 7.0 0.00 0.00 0.00 89 1019.3
20260506141542 52 162 2.6 6.1 0.00 0.00 0.00 90 1019.1
20260506141027 53 168 3.5 6.1 0.00 0.00 0.00 90 1019.2
20260506140525 53 211 4.3 6.1 0.00 0.00 0.00 90 1019.2
20260506140042 53 171 3.5 6.1 0.00 0.00 0.00 90 1019.1
20260506135523 52 207 1.7 7.0 0.00 0.00 0.00 89 1019.0
20260506135024 52 217 3.5 7.8 0.00 0.00 0.00 90 1019.0
20260506134541 52 210 3.5 7.8 0.00 0.00 0.00 89 1019.0
20260506134025 53 221 3.5 5.2 0.00 0.00 0.00 89 1019.0
20260506133525 52 205 2.6 7.0 0.00 0.00 0.00 89 1018.9
20260506133040 52 137 2.6 7.0 0.00 0.00 0.00 89 1018.9
20260506132528 52 169 3.5 6.1 0.00 0.00 0.00 89 1018.9
20260506132024 53 157 2.6 6.1 0.00 0.00 0.00 89 1018.8
20260506131546 53 162 3.5 7.0 0.00 0.00 0.00 89 1018.9
20260506131024 53 202 2.6 7.8 0.00 0.00 0.00 89 1018.8
20260506130524 53 172 4.3 7.8 0.00 0.00 0.00 89 1018.8
20260506130051 53 209 3.5 7.0 0.00 0.00 0.00 89 1018.9
20260506125525 52 177 2.6 8.7 0.00 0.00 0.00 89 1018.7
20260506125029 52 134 4.3 8.7 0.00 0.00 0.00 89 1018.6
20260506124551 52 131 2.6 6.1 0.00 0.00 0.00 89 1018.2
20260506124024 52 158 2.6 5.2 0.00 0.00 0.00 90 1018.3
20260506123525 52 181 3.5 8.7 0.00 0.00 0.00 90 1018.5
20260506123042 52 169 4.3 8.7 0.00 0.00 0.00 90 1018.5
20260506122525 52 198 3.5 7.8 0.00 0.00 0.00 90 1018.5
20260506122024 52 215 2.6 8.7 0.00 0.00 0.00 89 1018.4
20260506121537 52 170 3.5 8.7 0.00 0.00 0.00 90 1018.5
20260506121024 52 139 4.3 7.0 0.00 0.00 0.00 90 1018.4
20260506120527 52 149 4.3 9.6 0.00 0.00 0.00 89 1018.4
20260506120040 52 230 4.3 9.6 0.00 0.00 0.00 90 1018.4
20260506115526 52 160 5.2 9.6 0.00 0.00 0.00 89 1018.3
20260506115024 52 187 3.5 8.7 0.00 0.00 0.00 90 1018.3
20260506114542 52 154 4.3 8.7 0.00 0.00 0.00 89 1018.4
20260506114024 52 210 3.5 10.4 0.00 0.00 0.00 89 1018.3
20260506113525 52 188 4.3 10.4 0.00 0.00 0.00 89 1018.3
20260506113049 52 226 6.1 10.4 0.00 0.00 0.00 89 1018.0
20260506112525 52 203 4.3 7.8 0.00 0.00 0.00 89 1018.0
20260506112024 52 135 3.5 7.0 0.00 0.00 0.00 89 1017.9
20260506111538 52 162 3.5 7.0 0.00 0.00 0.00 89 1017.9
20260506111024 53 224 4.3 7.8 0.00 0.00 0.00 89 1018.0
20260506110526 53 201 3.5 7.8 0.00 0.00 0.00 89 1018.0
20260506110043 53 203 4.3 7.8 0.00 0.00 0.00 89 1018.0
20260506105524 53 176 3.5 7.8 0.00 0.00 0.00 88 1018.0
20260506105026 53 165 3.5 7.8 0.00 0.00 0.00 89 1018.0
20260506104543 53 150 2.6 7.8 0.00 0.00 0.00 88 1017.9
20260506104024 53 210 4.3 7.8 0.00 0.00 0.00 89 1017.9
20260506103524 53 191 2.6 7.8 0.00 0.00 0.00 89 1017.9
20260506103045 53 155 3.5 7.8 0.00 0.00 0.00 88 1017.9
20260506102524 53 146 4.3 7.8 0.00 0.00 0.00 88 1017.8
20260506102025 53 198 5.2 8.7 0.00 0.00 0.00 88 1017.7
20260506101551 53 219 4.3 8.7 0.00 0.00 0.00 88 1017.7
20260506101024 53 172 5.2 8.7 0.00 0.00 0.00 88 1017.7
20260506100525 53 183 4.3 7.8 0.00 0.00 0.00 87 1017.7
20260506100059 53 210 4.3 7.8 0.00 0.00 0.00 88 1017.7
20260506095525 53 223 3.5 7.0 0.00 0.00 0.00 87 1017.5
20260506095028 53 131 4.3 7.0 0.00 0.00 0.00 88 1017.5
20260506094536 53 203 3.5 7.0 0.00 0.00 0.00 88 1017.5
20260506094026 53 183 4.3 7.8 0.00 0.00 0.00 87 1017.4
20260506093526 53 203 3.5 7.8 0.00 0.00 0.00 87 1017.4
20260506093042 53 204 3.5 7.8 0.00 0.00 0.00 87 1017.4
20260506092523 53 214 4.3 7.0 0.00 0.00 0.00 88 1017.4
20260506092029 53 143 4.3 7.0 0.00 0.00 0.00 88 1017.3
20260506091537 53 179 4.3 7.0 0.00 0.00 0.00 87 1017.4
20260506091028 53 119 4.3 7.0 0.00 0.00 0.00 88 1017.4
20260506090525 53 113 3.5 10.4 0.00 0.00 0.00 87 1017.4
20260506090042 53 192 3.5 10.4 0.00 0.00 0.00 87 1017.2
20260506085526 53 233 2.6 7.0 0.00 0.00 0.00 87 1017.3
20260506085026 54 147 3.5 6.1 0.00 0.00 0.00 88 1017.3
20260506084559 53 213 3.5 7.0 0.00 0.00 0.00 87 1017.4
20260506084023 53 194 3.5 7.0 0.00 0.00 0.00 87 1017.4
20260506083527 53 169 4.3 8.7 0.00 0.00 0.00 88 1017.3
20260506083039 53 171 4.3 8.7 0.00 0.00 0.00 89 1017.1
20260506082526 53 213 2.6 4.3 0.00 0.00 0.00 88 1017.2
20260506082028 53 162 1.7 3.5 0.00 0.00 0.00 88 1017.2
20260506081541 53 167 1.7 4.3 0.00 0.00 0.00 88 1017.1
20260506081027 53 143 1.7 4.3 0.00 0.00 0.00 88 1017.0
20260506080523 53 207 1.7 5.2 0.00 0.00 0.00 88 1017.0
20260506073527 53 141 0.9 3.5 0.00 0.00 0.00 87 1016.8
20260506073045 53 144 0.9 5.2 0.00 0.00 0.00 87 1016.7
20260506072526 53 151 1.7 5.2 0.00 0.00 0.00 87 1016.8
20260506072026 53 112 2.6 5.2 0.00 0.00 0.00 87 1016.6
20260506071537 53 227 2.6 6.1 0.00 0.00 0.00 87 1016.6
20260506071028 54 149 2.6 6.1 0.00 0.00 0.00 87 1016.4
20260506070529 53 226 2.6 6.1 0.00 0.00 0.00 87 1016.5
20260506062024 55 131 1.7 7.0 0.00 0.00 0.00 85 1016.1
20260506061539 55 120 1.7 7.8 0.00 0.00 0.00 84 1016.0
20260506061028 55 215 2.6 7.8 0.00 0.00 0.00 84 1016.0
20260506060529 55 108 3.5 7.8 0.00 0.00 0.00 84 1016.1